FW9747 Weather Reports


time (UTC)temp
F
wind
direction
speed
knots
gust
knots
rain 1hr
in
rain 24hr
in
rain mn
in
humidity
%
barometer
mb
20260504000100 65 0.0 0.0 0.00 0.00 0.00 30 993.8
20260503234555 66 0.0 0.0 0.00 0.00 0.00 30 994.1
20260503233101 66 0.0 0.0 0.00 0.00 0.00 29 994.1
20260503231556 67 0.0 0.0 0.00 0.00 0.00 27 994.0
20260503230055 68 0.0 0.0 0.00 0.00 0.00 28 994.2
20260503224552 68 0.0 0.0 0.00 0.00 0.00 39 994.4
20260503223054 68 0.0 0.0 0.00 0.00 0.00 39 994.5
20260503221554 67 0.0 0.0 0.00 0.00 0.00 41 994.7
20260503220054 67 0.0 0.0 0.00 0.00 0.00 41 994.9
20260503214601 67 0.0 0.0 0.00 0.00 0.00 39 995.0
20260503213053 66 0.0 0.0 0.00 0.00 0.00 40 994.9
20260503211554 66 0.0 0.0 0.00 0.00 0.00 39 995.4
20260503210055 65 0.0 0.0 0.00 0.00 0.00 41 995.6
20260503204559 71 0.0 0.0 0.00 0.00 0.00 24 995.5
20260503203059 74 0.0 0.0 0.00 0.00 0.00 22 995.2
20260503201553 72 0.0 0.0 0.00 0.00 0.00 22 995.6
20260503200053 70 0.0 0.0 0.00 0.00 0.00 23 996.3
20260503194554 71 0.0 0.0 0.00 0.00 0.00 23 996.3
20260503193111 70 0.0 0.0 0.00 0.00 0.00 24 996.9
20260503191558 71 0.0 0.0 0.00 0.00 0.00 23 997.7
20260503190105 70 0.0 0.0 0.00 0.00 0.00 26 998.3
20260503184556 69 0.0 0.0 0.00 0.00 0.00 27 998.9
20260503183101 69 0.0 0.0 0.00 0.00 0.00 27 999.5
20260503181552 69 0.0 0.0 0.00 0.00 0.00 28 1000.1
20260503180058 68 0.0 0.0 0.00 0.00 0.00 27 1000.6
20260503174552 68 0.0 0.0 0.00 0.00 0.00 28 1001.1
20260503173112 68 0.0 0.0 0.00 0.00 0.00 27 1001.5
20260503171554 68 0.0 0.0 0.00 0.00 0.00 27 1001.9
20260503150106 59 0.0 0.0 0.00 0.00 0.00 40 1005.6
20260503140113 52 0.0 0.0 0.00 0.00 0.00 52 1006.8
20260503100104 37 0.0 0.0 0.00 0.00 0.00 67 1009.6
20260503081601 38 0.0 0.0 0.00 0.00 0.00 64 1010.0
20260503071607 38 0.0 0.0 0.00 0.00 0.00 65 1010.6
20260503060108 39 0.0 0.0 0.00 0.00 0.00 60 1010.8
20260503054558 40 0.0 0.0 0.00 0.00 0.00 58 1010.9
20260503053052 41 0.0 0.0 0.00 0.00 0.00 56 1010.8
20260503051558 41 0.0 0.0 0.00 0.00 0.00 56 1010.7
20260503050055 42 0.0 0.0 0.00 0.00 0.00 52 1010.9
20260503044552 44 0.0 0.0 0.00 0.00 0.00 47 1010.9
20260503043057 46 0.0 0.0 0.00 0.00 0.00 43 1010.8
20260503041551 46 0.0 0.0 0.00 0.00 0.00 44 1010.9
20260503040052 46 0.0 0.0 0.00 0.00 0.00 46 1011.0
20260503034551 46 0.0 0.0 0.00 0.00 0.00 46 1011.0
20260503033055 47 0.0 0.0 0.00 0.00 0.00 46 1010.9
20260503031552 47 0.0 0.0 0.00 0.00 0.00 44 1010.9
20260503030056 48 0.0 0.0 0.00 0.00 0.00 43 1010.9
20260503024602 49 0.0 0.0 0.00 0.00 0.00 42 1010.9
20260503023052 49 0.0 0.0 0.00 0.00 0.00 42 1010.7
20260503021559 50 0.0 0.0 0.00 0.00 0.00 40 1010.6
20260503020057 51 0.0 0.0 0.00 0.00 0.00 42 1010.4
20260503014621 52 0.0 0.0 0.00 0.00 0.00 45 1010.2
20260503013049 54 0.0 0.0 0.00 0.00 0.00 42 1010.1
20260503011609 55 0.0 0.0 0.00 0.00 0.00 39 1010.0
20260503010059 57 0.0 0.0 0.00 0.00 0.00 37 1010.0
20260503004600 58 0.0 0.0 0.00 0.00 0.00 37 1009.8
20260503003106 58 0.0 0.0 0.00 0.00 0.00 40 1009.8
20260503001608 59 0.0 0.0 0.00 0.00 0.00 40 1009.8